Location: Beverley
(50.2667°N, 107.9667°W)
Time: 22:43:30
(UTC+00:00)

EO-79 - Pass Details

Date: 02 July 2022
Orbit: 588 x 603 km, 98.0° (Epoch: 17 August)

Event Time Altitude Azimuth Distance (km) Brightness Sun altitude
Rises 09:08:58 0° 13° (NNE) 2,858 ? -12.6°
Reaches altitude 10° 09:11:08 10° 13° (NNE) 1,953 ? -12.4°
Maximum altitude 09:15:23 85° 287° (WNW) 612 ? -12.1°
Enters shadow 09:18:37 17° 198° (SSW) 1,536 ? -11.8°
